Location: Chevoux
(46.3801°N, 4.9476°E)
Time: 03:58:37
(UTC+00:00)

ISS - Pass Details

Date: 08 December 2021
Orbit: 413 x 422 km, 51.6° (Epoch: 22 January)

Event Time Altitude Azimuth Distance (km) Brightness Sun altitude
Rises 16:53:38 0° 293° (WNW) 2,385 0.8 -10.0°
Reaches altitude 10° 16:55:50 10° 285° (WNW) 1,515 -0.1 -10.3°
Maximum altitude 16:58:59 36° 217° (SW) 688 -2.1 -10.9°
Drops below altitude 10° 17:02:07 10° 149° (SSE) 1,501 -1.0 -11.4°
Enters shadow 17:05:56 -5° 138° (SE) 3,026 0.4 -12.0°
